User: anonymous   Login
Location: Gipe Farm
(40.9466°N, 95.5370°W)
Time: 15:24:19
(UTC-05:00)
Language:

Cosmos 1842 - Orbit

View from above orbital plane
View from above orbital plane
View from above satellite
View from above satellite

Ground track
Ground track

The orbit data is extracted from the following two-line orbital elements,

1 17911U 87038A   16273.04492031  .00001919  00000-0  11340-3 0  9999
2 17911  82.5186  88.8561 0013542  69.6213 290.6470 15.10850379602374
Epoch (UTC): 29 September 2016 01:04:41
Eccentricity: 0.0013542
inclination: 82.5186°
perigee height: 524 km
apogee height: 543 km
right ascension of ascending node: 88.8561°
argument of perigee: 69.6213°
revolutions per day: 15.10850379
mean anomaly at epoch: 290.6470°
orbit number at epoch: 60237

The dashed part of the orbit path shows where the satellite is in the earth's shadow,  

DLR